| time (UTC) | temp F | wind direction | speed knots | gust knots | rain 1hr in | rain 24hr in | rain mn in | humidity % | barometer mb |
| 20260904030257 | 81 | 155 | 5.2 | 7.8 | 0.00 | 0.01 | 0.01 | 73 | 1013.3 |
| 20260904025753 | 81 | 167 | 6.1 | 7.8 | 0.00 | 0.01 | 0.01 | 73 | 1013.3 |
| 20260904025248 | 81 | 159 | 5.2 | 7.8 | 0.00 | 0.01 | 0.01 | 72 | 1013.1 |
| 20260904024743 | 81 | 165 | 5.2 | 7.8 | 0.00 | 0.01 | 0.01 | 73 | 1013.2 |
| 20260904024239 | 82 | 141 | 8.7 | 9.6 | 0.00 | 0.01 | 0.01 | 73 | 1013.1 |
| 20260904023735 | 82 | 154 | 7.0 | 7.8 | 0.00 | 0.01 | 0.01 | 74 | 1013.1 |
| 20260904023231 | 82 | 154 | 7.8 | 8.7 | 0.00 | 0.01 | 0.01 | 74 | 1012.9 |
| 20260904022730 | 82 | 142 | 7.0 | 7.8 | 0.00 | 0.01 | 0.01 | 74 | 1012.8 |
| 20260904022228 | 82 | 160 | 3.5 | 7.0 | 0.00 | 0.01 | 0.01 | 74 | 1012.8 |
| 20260904021723 | 82 | 177 | 3.5 | 7.0 | 0.00 | 0.01 | 0.01 | 74 | 1012.7 |
| 20260904021218 | 82 | 167 | 2.6 | 5.2 | 0.00 | 0.01 | 0.01 | 74 | 1012.6 |
| 20260904020714 | 82 | 153 | 5.2 | 5.2 | 0.00 | 0.01 | 0.01 | 74 | 1012.5 |
| 20260904020213 | 82 | 176 | 2.6 | 5.2 | 0.00 | 0.01 | 0.01 | 73 | 1012.6 |
| 20260904015712 | 82 | 164 | 5.2 | 7.8 | 0.00 | 0.01 | 0.01 | 73 | 1012.6 |
| 20260904015207 | 83 | 164 | 6.1 | 8.7 | 0.00 | 0.01 | 0.01 | 72 | 1012.4 |
| 20260904014705 | 83 | 156 | 5.2 | 8.7 | 0.00 | 0.01 | 0.01 | 72 | 1012.3 |
| 20260904014200 | 83 | 153 | 3.5 | 7.8 | 0.00 | 0.01 | 0.01 | 72 | 1012.2 |
| 20260904013657 | 83 | 147 | 7.0 | 9.6 | 0.00 | 0.01 | 0.01 | 72 | 1012.2 |
| 20260904013152 | 83 | 161 | 6.1 | 7.8 | 0.00 | 0.01 | 0.01 | 72 | 1012.1 |
| 20260904012648 | 83 | 150 | 6.1 | 7.8 | 0.00 | 0.01 | 0.01 | 71 | 1012.0 |
| 20260904012147 | 84 | 157 | 7.8 | 10.4 | 0.00 | 0.01 | 0.01 | 70 | 1012.1 |
| 20260904011646 | 84 | 154 | 6.1 | 9.6 | 0.00 | 0.01 | 0.01 | 69 | 1011.8 |
| 20260904011142 | 84 | 151 | 7.0 | 8.7 | 0.00 | 0.01 | 0.01 | 69 | 1011.8 |
| 20260904010638 | 84 | 168 | 4.3 | 13.0 | 0.00 | 0.01 | 0.01 | 69 | 1012.0 |
| 20260904010134 | 84 | 165 | 7.8 | 8.7 | 0.00 | 0.01 | 0.01 | 69 | 1012.0 |
| 20260904005629 | 84 | 152 | 7.8 | 8.7 | 0.00 | 0.01 | 0.01 | 70 | 1011.9 |
| 20260904005125 | 85 | 156 | 6.1 | 11.3 | 0.00 | 0.01 | 0.01 | 71 | 1011.8 |
| 20260904004620 | 85 | 170 | 7.8 | 10.4 | 0.00 | 0.01 | 0.01 | 71 | 1011.8 |
| 20260904004120 | 85 | 156 | 5.2 | 10.4 | 0.00 | 0.01 | 0.01 | 71 | 1011.7 |
| 20260904003616 | 86 | 166 | 8.7 | 11.3 | 0.00 | 0.01 | 0.01 | 70 | 1011.7 |
| 20260904003112 | 86 | 158 | 5.2 | 9.6 | 0.00 | 0.01 | 0.01 | 70 | 1011.7 |
| 20260904002608 | 86 | 156 | 7.0 | 9.6 | 0.00 | 0.01 | 0.01 | 69 | 1011.7 |
| 20260904002108 | 86 | 120 | 3.5 | 10.4 | 0.00 | 0.01 | 0.01 | 68 | 1011.8 |
| 20260904001558 | 87 | 154 | 6.1 | 11.3 | 0.00 | 0.01 | 0.01 | 67 | 1011.7 |
| 20260904001056 | 87 | 140 | 5.2 | 11.3 | 0.00 | 0.01 | 0.01 | 67 | 1011.6 |
| 20260904000551 | 87 | 141 | 7.8 | 10.4 | 0.00 | 0.01 | 0.01 | 66 | 1011.5 |
| 20260904000047 | 87 | 149 | 9.6 | 13.0 | 0.00 | 0.01 | 0.01 | 67 | 1011.5 |
| 20260903235547 | 87 | 159 | 7.8 | 9.6 | 0.00 | 0.01 | 0.01 | 66 | 1011.7 |
| 20260903235043 | 87 | 139 | 8.7 | 11.3 | 0.00 | 0.01 | 0.01 | 66 | 1011.7 |
| 20260903234538 | 88 | 151 | 8.7 | 10.4 | 0.00 | 0.01 | 0.01 | 65 | 1011.7 |
| 20260903234033 | 88 | 139 | 6.1 | 8.7 | 0.00 | 0.01 | 0.01 | 64 | 1011.7 |
| 20260903233529 | 88 | 156 | 10.4 | 11.3 | 0.00 | 0.01 | 0.01 | 64 | 1011.6 |
| 20260903233025 | 89 | 123 | 6.1 | 13.9 | 0.00 | 0.01 | 0.01 | 63 | 1011.4 |
| 20260903232520 | 89 | 157 | 7.8 | 9.6 | 0.00 | 0.01 | 0.01 | 62 | 1011.4 |
| 20260903232015 | 89 | 159 | 6.1 | 8.7 | 0.00 | 0.01 | 0.01 | 60 | 1011.3 |
| 20260903231509 | 89 | 146 | 4.3 | 12.2 | 0.00 | 0.01 | 0.01 | 61 | 1011.5 |
| 20260903231004 | 89 | 159 | 7.8 | 13.9 | 0.00 | 0.01 | 0.01 | 59 | 1011.5 |
| 20260903230500 | 89 | 147 | 7.8 | 13.0 | 0.00 | 0.01 | 0.01 | 59 | 1011.4 |
| 20260903225956 | 89 | 151 | 6.1 | 11.3 | 0.00 | 0.01 | 0.01 | 60 | 1011.5 |
| 20260903225451 | 88 | 119 | 3.5 | 14.8 | 0.00 | 0.01 | 0.01 | 62 | 1011.4 |
| 20260903224948 | 88 | 155 | 7.8 | 13.0 | 0.00 | 0.01 | 0.01 | 62 | 1011.4 |
| 20260903224443 | 89 | 156 | 9.6 | 14.8 | 0.00 | 0.01 | 0.01 | 62 | 1011.4 |
| 20260903223939 | 89 | 164 | 6.1 | 13.0 | 0.00 | 0.01 | 0.01 | 63 | 1011.5 |
| 20260903223438 | 89 | 150 | 12.2 | 13.9 | 0.00 | 0.01 | 0.01 | 63 | 1011.3 |
| 20260903222937 | 90 | 119 | 2.6 | 8.7 | 0.00 | 0.01 | 0.01 | 62 | 1011.7 |
| 20260903222433 | 89 | 103 | 7.0 | 13.0 | 0.00 | 0.01 | 0.01 | 62 | 1011.5 |
| 20260903221932 | 89 | 135 | 10.4 | 12.2 | 0.00 | 0.01 | 0.01 | 63 | 1011.5 |
| 20260903221432 | 89 | 162 | 7.0 | 11.3 | 0.00 | 0.01 | 0.01 | 64 | 1011.5 |
| 20260903220929 | 89 | 151 | 8.7 | 13.0 | 0.00 | 0.01 | 0.01 | 63 | 1011.5 |
| 20260903220424 | 88 | 159 | 8.7 | 11.3 | 0.00 | 0.01 | 0.01 | 64 | 1011.6 |
| 20260903215921 | 89 | 121 | 3.5 | 12.2 | 0.00 | 0.01 | 0.01 | 64 | 1011.6 |
| 20260903215419 | 89 | 125 | 6.1 | 9.6 | 0.00 | 0.01 | 0.01 | 63 | 1011.7 |
| 20260903214917 | 89 | 173 | 5.2 | 7.0 | 0.00 | 0.01 | 0.01 | 64 | 1011.7 |
| 20260903214413 | 88 | 153 | 9.6 | 9.6 | 0.00 | 0.01 | 0.01 | 64 | 1011.8 |
| 20260903213912 | 88 | 133 | 5.2 | 9.6 | 0.00 | 0.01 | 0.01 | 64 | 1011.7 |
| 20260903213408 | 88 | 151 | 6.1 | 9.6 | 0.00 | 0.01 | 0.01 | 64 | 1011.9 |
| 20260903212904 | 89 | 153 | 4.3 | 6.1 | 0.00 | 0.01 | 0.01 | 64 | 1011.8 |
| 20260903212359 | 88 | 140 | 6.1 | 9.6 | 0.00 | 0.01 | 0.01 | 64 | 1011.9 |
| 20260903211858 | 89 | 150 | 3.5 | 12.2 | 0.00 | 0.01 | 0.01 | 63 | 1011.8 |
| 20260903211354 | 90 | 144 | 4.3 | 12.2 | 0.00 | 0.01 | 0.01 | 61 | 1012.0 |
| 20260903210851 | 89 | 151 | 4.3 | 7.8 | 0.00 | 0.01 | 0.01 | 61 | 1011.8 |
| 20260903210350 | 89 | 151 | 8.7 | 9.6 | 0.00 | 0.01 | 0.01 | 61 | 1012.2 |
| 20260903205850 | 89 | 166 | 10.4 | 12.2 | 0.00 | 0.01 | 0.01 | 62 | 1012.1 |
| 20260903205350 | 90 | 165 | 6.1 | 9.6 | 0.00 | 0.01 | 0.01 | 61 | 1012.0 |
| 20260903204845 | 89 | 177 | 5.2 | 7.8 | 0.00 | 0.01 | 0.01 | 63 | 1011.9 |
| 20260903204341 | 90 | 164 | 7.8 | 8.7 | 0.00 | 0.01 | 0.01 | 61 | 1012.1 |
| 20260903203836 | 89 | 147 | 4.3 | 10.4 | 0.00 | 0.01 | 0.01 | 63 | 1012.3 |
| 20260903203332 | 90 | 138 | 1.7 | 4.3 | 0.00 | 0.01 | 0.01 | 61 | 1012.2 |
| 20260903202831 | 89 | 160 | 11.3 | 13.9 | 0.00 | 0.01 | 0.01 | 64 | 1012.4 |
| 20260903202328 | 90 | 151 | 9.6 | 10.4 | 0.00 | 0.01 | 0.01 | 62 | 1012.5 |
| 20260903201826 | 89 | 162 | 8.7 | 14.8 | 0.00 | 0.01 | 0.01 | 63 | 1012.6 |
| 20260903201322 | 88 | 121 | 5.2 | 9.6 | 0.00 | 0.01 | 0.01 | 63 | 1012.7 |
| 20260903200820 | 90 | 165 | 6.1 | 9.6 | 0.00 | 0.01 | 0.01 | 61 | 1012.7 |
| 20260903200316 | 88 | 149 | 9.6 | 16.5 | 0.00 | 0.01 | 0.01 | 64 | 1012.6 |
| 20260903195811 | 87 | 178 | 4.3 | 9.6 | 0.00 | 0.01 | 0.01 | 66 | 1012.8 |
| 20260903195308 | 87 | 163 | 7.0 | 11.3 | 0.00 | 0.01 | 0.01 | 65 | 1012.6 |
| 20260903194802 | 88 | 158 | 13.0 | 13.9 | 0.00 | 0.01 | 0.01 | 64 | 1012.7 |
| 20260903194258 | 88 | 197 | 8.7 | 13.0 | 0.00 | 0.01 | 0.01 | 63 | 1012.7 |
| 20260903193754 | 88 | 170 | 5.2 | 18.2 | 0.00 | 0.01 | 0.01 | 64 | 1012.7 |
| 20260903193249 | 88 | 208 | 7.8 | 13.9 | 0.00 | 0.01 | 0.01 | 63 | 1012.8 |
| 20260903192745 | 87 | 177 | 6.1 | 16.5 | 0.00 | 0.01 | 0.01 | 65 | 1013.1 |
| 20260903192235 | 87 | 198 | 7.0 | 10.4 | 0.00 | 0.01 | 0.01 | 66 | 1012.8 |
| 20260903191731 | 87 | 167 | 7.8 | 13.0 | 0.00 | 0.01 | 0.01 | 66 | 1013.0 |
| 20260903191226 | 86 | 176 | 6.1 | 14.8 | 0.00 | 0.01 | 0.01 | 68 | 1013.0 |
| 20260903190720 | 86 | 153 | 12.2 | 14.8 | 0.00 | 0.01 | 0.01 | 68 | 1013.3 |
| 20260903190220 | 85 | 142 | 1.7 | 10.4 | 0.00 | 0.01 | 0.01 | 70 | 1013.3 |
| 20260903185715 | 86 | 155 | 5.2 | 7.0 | 0.00 | 0.01 | 0.01 | 70 | 1013.5 |
| 20260903185210 | 86 | 150 | 12.2 | 13.0 | 0.00 | 0.01 | 0.01 | 70 | 1013.6 |
| 20260903184706 | 85 | 114 | 5.2 | 10.4 | 0.00 | 0.01 | 0.01 | 70 | 1013.5 |
| 20260903184202 | 85 | 152 | 4.3 | 9.6 | 0.00 | 0.01 | 0.01 | 72 | 1013.6 |
| 20260903183701 | 84 | 132 | 8.7 | 14.8 | 0.00 | 0.01 | 0.01 | 72 | 1013.6 |
| 20260903183156 | 86 | 119 | 6.1 | 10.4 | 0.00 | 0.01 | 0.01 | 71 | 1013.6 |
| 20260903182655 | 84 | 131 | 3.5 | 12.2 | 0.00 | 0.01 | 0.01 | 74 | 1013.6 |
| 20260903182151 | 84 | 155 | 7.0 | 11.3 | 0.00 | 0.01 | 0.01 | 73 | 1013.9 |
| 20260903181649 | 83 | 138 | 11.3 | 13.9 | 0.00 | 0.01 | 0.01 | 73 | 1013.9 |
| 20260903181144 | 83 | 156 | 7.8 | 13.0 | 0.00 | 0.01 | 0.01 | 75 | 1013.9 |
| 20260903180640 | 82 | 154 | 13.0 | 19.1 | 0.00 | 0.01 | 0.01 | 75 | 1013.9 |
| 20260903180140 | 82 | 157 | 13.0 | 13.9 | 0.00 | 0.01 | 0.01 | 75 | 1014.1 |
| 20260903175638 | 82 | 180 | 6.1 | 18.2 | 0.00 | 0.01 | 0.01 | 76 | 1014.1 |
| 20260903175138 | 82 | 150 | 13.0 | 18.2 | 0.00 | 0.01 | 0.01 | 76 | 1014.1 |
| 20260903174633 | 82 | 145 | 11.3 | 16.5 | 0.00 | 0.01 | 0.01 | 77 | 1014.2 |
| 20260903174128 | 82 | 154 | 9.6 | 12.2 | 0.00 | 0.01 | 0.01 | 78 | 1014.3 |
| 20260903173623 | 81 | 164 | 9.6 | 17.4 | 0.00 | 0.01 | 0.01 | 78 | 1014.5 |
| 20260903173119 | 81 | 160 | 9.6 | 14.8 | 0.00 | 0.01 | 0.01 | 78 | 1014.4 |
| 20260903172619 | 81 | 168 | 14.8 | 16.5 | 0.00 | 0.01 | 0.01 | 78 | 1014.6 |
| 20260903172115 | 81 | 156 | 20.0 | 21.7 | 0.00 | 0.01 | 0.01 | 79 | 1014.5 |
| 20260903171614 | 81 | 141 | 11.3 | 20.0 | 0.00 | 0.01 | 0.01 | 79 | 1014.7 |
| 20260903171111 | 81 | 151 | 12.2 | 15.6 | 0.00 | 0.01 | 0.01 | 79 | 1014.5 |
| 20260903170609 | 81 | 166 | 11.3 | 16.5 | 0.00 | 0.01 | 0.01 | 79 | 1014.6 |
| 20260903170105 | 81 | 171 | 9.6 | 16.5 | 0.00 | 0.01 | 0.01 | 79 | 1014.5 |
| 20260903165601 | 81 | 159 | 8.7 | 15.6 | 0.00 | 0.01 | 0.01 | 80 | 1014.4 |
| 20260903165058 | 81 | 152 | 13.9 | 14.8 | 0.00 | 0.01 | 0.01 | 81 | 1014.5 |
| 20260903164552 | 81 | 158 | 7.8 | 13.0 | 0.00 | 0.01 | 0.01 | 82 | 1014.6 |
| 20260903164049 | 80 | 146 | 11.3 | 17.4 | 0.00 | 0.01 | 0.01 | 83 | 1014.5 |
| 20260903163548 | 80 | 146 | 11.3 | 17.4 | 0.00 | 0.01 | 0.01 | 83 | 1014.5 |
| 20260903163045 | 81 | 163 | 9.6 | 14.8 | 0.00 | 0.01 | 0.01 | 83 | 1014.5 |
| 20260903162541 | 80 | 173 | 8.7 | 16.5 | 0.00 | 0.01 | 0.01 | 84 | 1014.5 |
| 20260903162036 | 80 | 134 | 7.0 | 14.8 | 0.00 | 0.01 | 0.01 | 84 | 1014.3 |
| 20260903161532 | 80 | 167 | 11.3 | 17.4 | 0.00 | 0.01 | 0.01 | 84 | 1014.6 |
| 20260903161028 | 80 | 153 | 13.0 | 17.4 | 0.00 | 0.01 | 0.01 | 85 | 1014.3 |
| 20260903160526 | 80 | 148 | 13.9 | 16.5 | 0.00 | 0.01 | 0.01 | 84 | 1014.5 |
| 20260903160021 | 80 | 153 | 9.6 | 13.9 | 0.00 | 0.01 | 0.01 | 85 | 1014.3 |
| 20260903155514 | 80 | 143 | 8.7 | 14.8 | 0.00 | 0.01 | 0.01 | 85 | 1014.2 |
| 20260903155010 | 80 | 150 | 10.4 | 17.4 | 0.00 | 0.01 | 0.01 | 86 | 1014.2 |
| 20260903154506 | 80 | 147 | 19.1 | 20.0 | 0.00 | 0.01 | 0.01 | 85 | 1014.1 |
| 20260903154001 | 80 | 140 | 12.2 | 13.9 | 0.00 | 0.01 | 0.01 | 85 | 1014.1 |
| 20260903153457 | 80 | 149 | 11.3 | 13.9 | 0.00 | 0.01 | 0.01 | 86 | 1014.0 |
| 20260903152952 | 79 | 148 | 13.0 | 18.2 | 0.00 | 0.01 | 0.01 | 86 | 1014.1 |
| 20260903152448 | 79 | 139 | 8.7 | 14.8 | 0.00 | 0.01 | 0.01 | 87 | 1014.1 |
| 20260903151945 | 79 | 168 | 7.8 | 11.3 | 0.00 | 0.01 | 0.01 | 87 | 1014.0 |
| 20260903151444 | 79 | 147 | 11.3 | 13.9 | 0.00 | 0.01 | 0.01 | 87 | 1014.1 |
| 20260903150939 | 79 | 152 | 8.7 | 10.4 | 0.00 | 0.01 | 0.01 | 88 | 1014.0 |
| 20260903150440 | 79 | 148 | 7.8 | 11.3 | 0.00 | 0.01 | 0.01 | 88 | 1014.2 |
| 20260903145940 | 78 | 126 | 3.5 | 13.0 | 0.00 | 0.01 | 0.01 | 88 | 1014.1 |
| 20260903145435 | 78 | 159 | 7.8 | 11.3 | 0.00 | 0.01 | 0.01 | 89 | 1014.1 |
| 20260903144930 | 78 | 161 | 11.3 | 12.2 | 0.00 | 0.01 | 0.01 | 90 | 1014.2 |
| 20260903144429 | 78 | 139 | 6.1 | 9.6 | 0.00 | 0.01 | 0.01 | 90 | 1014.1 |
| 20260903143925 | 79 | 152 | 7.0 | 9.6 | 0.00 | 0.01 | 0.01 | 90 | 1014.2 |
| 20260903143422 | 79 | 137 | 5.2 | 13.0 | 0.00 | 0.01 | 0.01 | 90 | 1014.2 |
| 20260903142917 | 79 | 149 | 7.0 | 12.2 | 0.00 | 0.01 | 0.01 | 90 | 1014.1 |
| 20260903142412 | 79 | 161 | 7.8 | 10.4 | 0.00 | 0.01 | 0.01 | 90 | 1014.2 |
| 20260903141909 | 79 | 170 | 4.3 | 7.8 | 0.00 | 0.01 | 0.01 | 90 | 1014.2 |
| 20260903141404 | 79 | 168 | 4.3 | 8.7 | 0.00 | 0.01 | 0.01 | 90 | 1014.3 |
| 20260903140900 | 79 | 163 | 5.2 | 10.4 | 0.00 | 0.01 | 0.01 | 90 | 1014.1 |
| 20260903140354 | 79 | 148 | 7.0 | 10.4 | 0.00 | 0.01 | 0.01 | 90 | 1014.2 |
| 20260903135850 | 79 | 175 | 7.8 | 10.4 | 0.00 | 0.01 | 0.01 | 90 | 1014.1 |
| 20260903135345 | 79 | 153 | 7.8 | 13.9 | 0.00 | 0.01 | 0.01 | 90 | 1014.1 |
| 20260903134844 | 79 | 189 | 4.3 | 13.0 | 0.00 | 0.01 | 0.01 | 90 | 1014.2 |
| 20260903134340 | 79 | 162 | 7.0 | 10.4 | 0.00 | 0.01 | 0.01 | 90 | 1013.9 |
| 20260903133837 | 79 | 164 | 7.0 | 11.3 | 0.00 | 0.01 | 0.01 | 91 | 1013.9 |
| 20260903133328 | 78 | 158 | 7.8 | 11.3 | 0.00 | 0.01 | 0.01 | 92 | 1014.0 |
| 20260903132827 | 78 | 149 | 5.2 | 9.6 | 0.00 | 0.01 | 0.01 | 92 | 1014.2 |
| 20260903132324 | 78 | 126 | 1.7 | 5.2 | 0.00 | 0.01 | 0.01 | 92 | 1014.3 |
| 20260903131818 | 78 | 150 | 0.0 | 5.2 | 0.00 | 0.01 | 0.01 | 92 | 1014.3 |
| 20260903131318 | 78 | 152 | 1.7 | 3.5 | 0.00 | 0.01 | 0.01 | 92 | 1014.2 |
| 20260903130812 | 78 | 92 | 0.9 | 4.3 | 0.00 | 0.01 | 0.01 | 93 | 1014.1 |
| 20260903130312 | 78 | 121 | 1.7 | 5.2 | 0.00 | 0.01 | 0.01 | 93 | 1014.1 |
| 20260903125810 | 78 | 115 | 2.6 | 5.2 | 0.00 | 0.01 | 0.01 | 93 | 1013.6 |
| 20260903125306 | 77 | 136 | 3.5 | 6.1 | 0.00 | 0.01 | 0.01 | 93 | 1013.5 |
| 20260903124805 | 77 | 110 | 3.5 | 8.7 | 0.00 | 0.01 | 0.01 | 93 | 1013.5 |
| 20260903124301 | 77 | 149 | 5.2 | 9.6 | 0.00 | 0.01 | 0.01 | 93 | 1013.5 |
| 20260903123759 | 77 | 132 | 5.2 | 9.6 | 0.00 | 0.01 | 0.01 | 93 | 1013.4 |
| 20260903123259 | 77 | 150 | 6.1 | 7.8 | 0.00 | 0.01 | 0.01 | 93 | 1013.7 |
| 20260903122757 | 77 | 134 | 1.7 | 5.2 | 0.00 | 0.01 | 0.01 | 93 | 1013.9 |
| 20260903122253 | 77 | 117 | 3.5 | 4.3 | 0.00 | 0.01 | 0.01 | 93 | 1013.7 |
| 20260903121750 | 77 | 110 | 1.7 | 6.1 | 0.00 | 0.01 | 0.01 | 93 | 1013.5 |
| 20260903121247 | 77 | 132 | 5.2 | 7.0 | 0.00 | 0.01 | 0.01 | 93 | 1013.5 |
| 20260903120742 | 77 | 120 | 2.6 | 5.2 | 0.00 | 0.01 | 0.01 | 93 | 1013.5 |
| 20260903120236 | 77 | 131 | 3.5 | 7.8 | 0.00 | 0.01 | 0.01 | 93 | 1013.5 |
| 20260903115734 | 77 | 122 | 2.6 | 9.6 | 0.00 | 0.01 | 0.01 | 93 | 1013.6 |
| 20260903115230 | 77 | 106 | 2.6 | 8.7 | 0.00 | 0.01 | 0.01 | 93 | 1013.5 |
| 20260903114724 | 77 | 139 | 7.8 | 9.6 | 0.00 | 0.01 | 0.01 | 93 | 1013.3 |
| 20260903114220 | 77 | 147 | 7.8 | 9.6 | 0.00 | 0.01 | 0.01 | 93 | 1013.3 |
| 20260903113715 | 77 | 157 | 6.1 | 9.6 | 0.00 | 0.01 | 0.01 | 93 | 1013.2 |
| 20260903113211 | 77 | 137 | 5.2 | 7.8 | 0.00 | 0.01 | 0.01 | 93 | 1013.3 |
| 20260903112707 | 77 | 146 | 6.1 | 9.6 | 0.00 | 0.01 | 0.01 | 93 | 1013.3 |
| 20260903112202 | 77 | 144 | 4.3 | 7.0 | 0.00 | 0.01 | 0.01 | 93 | 1013.2 |
| 20260903111700 | 77 | 144 | 5.2 | 7.8 | 0.00 | 0.01 | 0.01 | 93 | 1013.1 |
| 20260903111156 | 77 | 147 | 6.1 | 12.2 | 0.00 | 0.01 | 0.01 | 93 | 1013.2 |
| 20260903110652 | 77 | 138 | 8.7 | 9.6 | 0.00 | 0.01 | 0.01 | 93 | 1013.2 |
| 20260903110142 | 76 | 132 | 7.0 | 10.4 | 0.00 | 0.01 | 0.01 | 94 | 1013.1 |
| 20260903105636 | 76 | 152 | 5.2 | 9.6 | 0.00 | 0.01 | 0.01 | 94 | 1013.2 |
| 20260903105131 | 76 | 147 | 7.8 | 9.6 | 0.00 | 0.01 | 0.01 | 94 | 1013.2 |
| 20260903104631 | 76 | 137 | 3.5 | 8.7 | 0.00 | 0.01 | 0.01 | 95 | 1013.0 |
| 20260903104127 | 76 | 161 | 6.1 | 8.7 | 0.00 | 0.01 | 0.01 | 95 | 1012.9 |
| 20260903103622 | 76 | 160 | 5.2 | 5.2 | 0.00 | 0.01 | 0.01 | 95 | 1013.0 |
| 20260903103119 | 76 | 116 | 1.7 | 4.3 | 0.00 | 0.01 | 0.01 | 95 | 1013.0 |
| 20260903102614 | 76 | 138 | 1.7 | 3.5 | 0.00 | 0.01 | 0.01 | 95 | 1013.1 |
| 20260903102113 | 76 | 120 | 2.6 | 4.3 | 0.00 | 0.01 | 0.01 | 95 | 1012.9 |
| 20260903101612 | 76 | 113 | 1.7 | 5.2 | 0.00 | 0.01 | 0.01 | 95 | 1012.9 |
| 20260903101109 | 76 | 135 | 1.7 | 3.5 | 0.00 | 0.01 | 0.01 | 95 | 1012.9 |
| 20260903100608 | 76 | 160 | 3.5 | 5.2 | 0.00 | 0.01 | 0.01 | 95 | 1012.9 |
| 20260903100108 | 76 | 138 | 3.5 | 7.0 | 0.00 | 0.01 | 0.01 | 95 | 1013.1 |
| 20260903095606 | 76 | 159 | 4.3 | 6.1 | 0.00 | 0.01 | 0.01 | 95 | 1012.9 |
| 20260903095105 | 76 | 132 | 2.6 | 5.2 | 0.00 | 0.01 | 0.01 | 95 | 1013.0 |
| 20260903094600 | 76 | 132 | 2.6 | 5.2 | 0.00 | 0.01 | 0.01 | 96 | 1013.0 |
| 20260903094056 | 76 | 148 | 2.6 | 5.2 | 0.00 | 0.01 | 0.01 | 96 | 1013.0 |
| 20260903093556 | 76 | 130 | 3.5 | 5.2 | 0.00 | 0.01 | 0.01 | 96 | 1013.1 |
| 20260903093051 | 76 | 131 | 0.9 | 5.2 | 0.00 | 0.01 | 0.01 | 96 | 1013.1 |
| 20260903092550 | 76 | 120 | 2.6 | 5.2 | 0.00 | 0.01 | 0.01 | 96 | 1013.1 |
| 20260903092045 | 76 | 111 | 2.6 | 3.5 | 0.00 | 0.01 | 0.01 | 96 | 1013.1 |
| 20260903091543 | 76 | 125 | 1.7 | 3.5 | 0.00 | 0.01 | 0.01 | 96 | 1012.9 |
| 20260903091038 | 76 | 113 | 1.7 | 3.5 | 0.00 | 0.01 | 0.01 | 96 | 1013.0 |
| 20260903090535 | 75 | 136 | 2.6 | 3.5 | 0.00 | 0.01 | 0.01 | 96 | 1013.0 |
| 20260903090033 | 75 | 129 | 1.7 | 2.6 | 0.00 | 0.01 | 0.01 | 96 | 1012.9 |
| 20260903085531 | 75 | 149 | 4.3 | 4.3 | 0.00 | 0.01 | 0.01 | 96 | 1012.9 |
| 20260903085027 | 75 | 139 | 1.7 | 2.6 | 0.00 | 0.01 | 0.01 | 96 | 1012.8 |
| 20260903084525 | 75 | 122 | 3.5 | 5.2 | 0.00 | 0.01 | 0.01 | 96 | 1013.0 |
| 20260903084020 | 75 | 121 | 2.6 | 4.3 | 0.00 | 0.01 | 0.01 | 96 | 1012.8 |
| 20260903083516 | 75 | 125 | 3.5 | 3.5 | 0.00 | 0.01 | 0.01 | 96 | 1012.9 |
| 20260903083010 | 75 | 135 | 3.5 | 7.0 | 0.00 | 0.01 | 0.01 | 96 | 1012.8 |
| 20260903082504 | 75 | 166 | 0.9 | 4.3 | 0.00 | 0.01 | 0.01 | 96 | 1012.9 |
| 20260903081954 | 75 | 118 | 1.7 | 5.2 | 0.00 | 0.01 | 0.01 | 95 | 1012.7 |
| 20260903081450 | 75 | 127 | 3.5 | 6.1 | 0.00 | 0.01 | 0.01 | 95 | 1012.8 |
| 20260903080946 | 75 | 167 | 3.5 | 5.2 | 0.00 | 0.01 | 0.01 | 95 | 1012.6 |
| 20260903080441 | 75 | 149 | 6.1 | 8.7 | 0.00 | 0.01 | 0.01 | 95 | 1012.9 |
| 20260903075937 | 75 | 154 | 7.0 | 7.0 | 0.00 | 0.01 | 0.01 | 95 | 1012.9 |
| 20260903075432 | 75 | 143 | 5.2 | 8.7 | 0.02 | 0.01 | 0.01 | 95 | 1012.8 |
| 20260903074926 | 75 | 176 | 3.5 | 7.8 | 0.02 | 0.01 | 0.01 | 95 | 1012.9 |
| 20260903074420 | 75 | 172 | 4.3 | 7.0 | 0.00 | 0.00 | 0.00 | 95 | 1012.7 |
| 20260903073916 | 75 | 170 | 5.2 | 10.4 | 0.02 | 0.00 | 0.00 | 95 | 1012.6 |
| 20260903073410 | 76 | 137 | 5.2 | 10.4 | 0.02 | 0.00 | 0.00 | 95 | 1012.6 |
| 20260903072906 | 76 | 151 | 5.2 | 7.8 | 0.00 | 0.00 | 0.00 | 94 | 1012.6 |
| 20260903072402 | 76 | 156 | 3.5 | 7.0 | 0.00 | 0.00 | 0.00 | 94 | 1012.5 |
| 20260903071900 | 76 | 148 | 6.1 | 7.8 | 0.00 | 0.00 | 0.00 | 94 | 1012.6 |
| 20260903071355 | 76 | 149 | 4.3 | 7.8 | 0.00 | 0.00 | 0.00 | 94 | 1012.6 |
| 20260903070850 | 76 | 136 | 1.7 | 7.0 | 0.00 | 0.00 | 0.00 | 94 | 1012.6 |
| 20260903070345 | 76 | 137 | 1.7 | 4.3 | 0.00 | 0.00 | 0.00 | 94 | 1012.4 |
| 20260903065840 | 76 | 138 | 2.6 | 4.3 | 0.00 | 0.00 | 0.00 | 93 | 1012.8 |
| 20260903065339 | 76 | 142 | 1.7 | 3.5 | 0.00 | 0.00 | 0.00 | 93 | 1012.8 |
| 20260903064839 | 76 | 142 | 2.6 | 4.3 | 0.00 | 0.00 | 0.00 | 92 | 1012.5 |
| 20260903064334 | 77 | 113 | 2.6 | 4.3 | 0.00 | 0.00 | 0.00 | 91 | 1012.6 |
| 20260903063830 | 77 | 115 | 1.7 | 5.2 | 0.00 | 0.00 | 0.00 | 90 | 1012.6 |
| 20260903063324 | 77 | 85 | 3.5 | 7.8 | 0.00 | 0.00 | 0.00 | 89 | 1012.7 |
| 20260903062815 | 77 | 115 | 2.6 | 6.1 | 0.00 | 0.00 | 0.00 | 88 | 1012.8 |
| 20260903062314 | 78 | 105 | 1.7 | 5.2 | 0.00 | 0.00 | 0.00 | 87 | 1012.6 |
| 20260903061811 | 78 | 134 | 2.6 | 4.3 | 0.00 | 0.00 | 0.00 | 86 | 1012.3 |
| 20260903061310 | 78 | 107 | 3.5 | 6.1 | 0.00 | 0.00 | 0.00 | 85 | 1012.2 |
| 20260903060806 | 79 | 117 | 1.7 | 5.2 | 0.00 | 0.00 | 0.00 | 84 | 1012.3 |
| 20260903060305 | 79 | 92 | 3.5 | 5.2 | 0.00 | 0.00 | 0.00 | 83 | 1012.4 |
| 20260903055803 | 79 | 128 | 1.7 | 3.5 | 0.00 | 0.00 | 0.00 | 82 | 1012.6 |
| 20260903055306 | 79 | 130 | 2.6 | 7.0 | 0.00 | 0.00 | 0.00 | 82 | 1012.5 |
| 20260903054757 | 79 | 112 | 1.7 | 3.5 | 0.00 | 0.00 | 0.00 | 82 | 1012.8 |
| 20260903054252 | 79 | 118 | 0.0 | 3.5 | 0.00 | 0.00 | 0.00 | 82 | 1012.7 |
| 20260903053748 | 79 | 62 | 3.5 | 3.5 | 0.00 | 0.00 | 0.00 | 82 | 1012.8 |
| 20260903053247 | 79 | 63 | 1.7 | 3.5 | 0.00 | 0.00 | 0.00 | 82 | 1012.9 |
| 20260903052738 | 79 | 116 | 1.7 | 3.5 | 0.00 | 0.00 | 0.00 | 82 | 1012.8 |
| 20260903052234 | 79 | 123 | 1.7 | 4.3 | 0.00 | 0.00 | 0.00 | 82 | 1013.0 |
| 20260903051729 | 79 | 108 | 0.9 | 2.6 | 0.00 | 0.00 | 0.00 | 82 | 1012.9 |
| 20260903051224 | 79 | 100 | 5.2 | 7.0 | 0.00 | 0.00 | 0.00 | 81 | 1013.2 |
| 20260903050720 | 79 | 160 | 3.5 | 5.2 | 0.00 | 0.00 | 0.00 | 81 | 1013.2 |
| 20260903050219 | 79 | 101 | 6.1 | 7.8 | 0.00 | 0.00 | 0.00 | 80 | 1013.2 |
| 20260903045714 | 79 | 107 | 4.3 | 8.7 | 0.00 | 0.00 | 0.00 | 80 | 1013.2 |
| 20260903045210 | 80 | 123 | 4.3 | 9.6 | 0.00 | 0.00 | 0.00 | 79 | 1013.2 |
| 20260903044706 | 80 | 100 | 4.3 | 7.8 | 0.00 | 0.00 | 0.00 | 78 | 1013.4 |
| 20260903044201 | 81 | 154 | 1.7 | 4.3 | 0.00 | 0.00 | 0.00 | 76 | 1013.3 |
| 20260903043658 | 81 | 123 | 3.5 | 7.8 | 0.00 | 0.00 | 0.00 | 76 | 1013.0 |
| 20260903043157 | 81 | 115 | 2.6 | 4.3 | 0.00 | 0.00 | 0.00 | 76 | 1013.2 |
| 20260903042656 | 81 | 116 | 0.9 | 4.3 | 0.00 | 0.00 | 0.00 | 75 | 1013.2 |
| 20260903042151 | 81 | 114 | 3.5 | 4.3 | 0.00 | 0.00 | 0.00 | 75 | 1013.1 |
| 20260903041648 | 81 | 52 | 1.7 | 4.3 | 0.00 | 0.00 | 0.00 | 74 | 1013.3 |
| 20260903041143 | 81 | 126 | 0.9 | 7.8 | 0.00 | 0.00 | 0.00 | 73 | 1013.4 |
| 20260903040642 | 81 | 92 | 1.7 | 4.3 | 0.00 | 0.00 | 0.00 | 73 | 1013.3 |
| 20260903040138 | 82 | 102 | 2.6 | 3.5 | 0.00 | 0.00 | 0.00 | 72 | 1013.4 |
| 20260903035634 | 82 | 140 | 1.7 | 7.8 | 0.00 | 0.00 | 0.00 | 72 | 1013.3 |
| 20260903035129 | 82 | 93 | 1.7 | 4.3 | 0.00 | 0.00 | 0.00 | 71 | 1013.5 |
| 20260903034624 | 82 | 125 | 2.6 | 5.2 | 0.00 | 0.00 | 0.00 | 71 | 1013.3 |
| 20260903034119 | 82 | 116 | 1.7 | 6.1 | 0.00 | 0.00 | 0.00 | 71 | 1013.3 |
| 20260903033614 | 82 | 94 | 3.5 | 5.2 | 0.00 | 0.00 | 0.00 | 70 | 1013.3 |
| 20260903033110 | 82 | 121 | 0.9 | 5.2 | 0.00 | 0.00 | 0.00 | 70 | 1013.3 |
| 20260903032610 | 83 | 134 | 0.9 | 3.5 | 0.00 | 0.00 | 0.00 | 70 | 1013.2 |
| 20260903032106 | 83 | 154 | 0.0 | 3.5 | 0.00 | 0.00 | 0.00 | 70 | 1013.3 |
| 20260903031606 | 83 | 101 | 3.5 | 6.1 | 0.00 | 0.00 | 0.00 | 69 | 1013.3 |
| 20260903031101 | 83 | 131 | 1.7 | 3.5 | 0.00 | 0.00 | 0.00 | 69 | 1013.4 |
| 20260903030556 | 83 | 97 | 1.7 | 2.6 | 0.00 | 0.00 | 0.00 | 68 | 1013.2 |